[[{"header":{"parameterUnit":"m.s-1","parameterCategory":1,"la1":30.2991,"la2":30.254,"lo1":-89.0895,"lo2":-89.0444,"dy":0.0017,"dx":0.0017,"nx":28,"ny":28,"refTime":"2023-07-19T03:00:00:Z","depth":0,"parameterNumber":2,"parameterNumberName":"U-component_of_WINDS"},"data":[0,0,0,0,0,0,0,0,0,0,0,0,0,0,0,0,0,0,0,0,0,0,0,0,0,0,0,0,0,0,0,0,0,0,0,0,0,0,0,0,0,0,0,0,0,0,0,0,0,0,0,0,0,0,0,0,0,0,-0.1991,-0.199,0,-0.191,-0.1909,-0.1908,-0.1855,-0.1855,-0.1855,-0.1854,-0.1769,-0.1767,-0.1765,0,0,0,0,0,0,0,0,0,0,0,0,0,-0.2099,-0.2097,-0.1991,-0.199,-0.1989,-0.191,-0.1909,-0.1908,-0.1855,-0.1855,-0.1855,-0.1854,-0.177,-0.1768,-0.1765,0,0,0,0,0,0,0,0,0,0,0,0,0,-0.2038,-0.2097,-0.1991,-0.1953,-0.1949,-0.191,-0.1909,-0.1908,-0.1856,-0.1855,-0.1855,-0.1854,-0.1771,-0.1768,-0.1765,-0.1757,0,0,-0.1756,-0.1755,0,0,0,0,0,0,0,0,-0.2042,-0.2034,-0.196,-0.1956,-0.1951,-0.1892,-0.1916,-0.1857,-0.1856,-0.1891,-0.1854,-0.1854,-0.181,-0.1804,-0.179,-0.1753,-0.1749,-0.1756,-0.1754,-0.1753,-0.1752,0,0,0,0,0,0,0,-0.2046,-0.2038,-0.1959,-0.1959,-0.1954,-0.194,-0.1931,-0.1904,-0.1854,-0.1888,-0.1884,-0.1875,-0.1808,-0.1793,-0.1788,-0.1748,-0.1756,-0.1753,-0.1751,-0.175,-0.1701,-0.1701,0,0,0,0,0,0,-0.2057,-0.2042,-0.1962,-0.1957,-0.1996,-0.1939,-0.1928,-0.1912,-0.1855,-0.1845,-0.1876,-0.1873,-0.1798,-0.1791,-0.1784,-0.1772,-0.1753,-0.175,-0.1748,-0.17,-0.1701,-0.1701,0,0,0,0,0,0,-0.2059,-0.205,-0.1965,-0.1998,-0.1986,-0.1937,-0.1919,-0.191,-0.1895,-0.1845,-0.1836,-0.187,-0.1798,-0.1789,-0.1764,-0.1768,-0.1749,-0.1746,-0.17,-0.17,-0.1701,-0.1746,0,0,0,0,0,0,-0.2062,-0.2051,-0.2048,-0.1998,-0.1985,-0.1947,-0.1919,-0.1909,-0.1891,-0.1887,-0.1837,-0.1829,-0.1796,-0.1769,-0.1761,-0.1764,-0.1744,-0.1699,-0.17,-0.1701,-0.1744,-0.1748,-0.1752,0,0,0,0,0,-0.2066,-0.2063,-0.2048,-0.2039,-0.1979,-0.1947,-0.1939,-0.1903,-0.1891,-0.1887,-0.1855,-0.183,-0.1769,-0.1767,-0.1758,-0.1759,-0.1699,-0.17,-0.1701,-0.1743,-0.1748,-0.1752,0,0,0,0,0,0,-0.2114,-0.2056,-0.2038,-0.2019,-0.1989,-0.1938,-0.1932,-0.1909,-0.1881,-0.1878,-0.1833,-0.1823,-0.1803,-0.1778,-0.1777,-0.1749,-0.1731,-0.173,-0.1766,-0.177,-0.1774,-0.1781,-0.1741,0,0,0,0,0,-0.2122,-0.2101,-0.2051,-0.2039,-0.2025,-0.1981,-0.1966,-0.1941,-0.1907,-0.1893,-0.1859,-0.1827,-0.18,-0.1784,-0.1757,-0.174,-0.1729,-0.1737,-0.1741,-0.1744,-0.1744,-0.1735,-0.1738,-0.1704,-0.1704,-0.1704,0,0,-0.2139,-0.2104,-0.2094,-0.2048,-0.2021,-0.2,-0.1971,-0.1949,-0.1933,-0.189,-0.1865,-0.184,-0.18,-0.1781,-0.177,-0.176,-0.1751,-0.1746,-0.1749,-0.1747,-0.1736,-0.1739,-0.1742,-0.1705,-0.1705,-0.1705,0,0,-0.2158,-0.213,-0.2118,-0.2092,-0.2052,-0.2023,-0.202,-0.1974,-0.1955,-0.193,-0.1897,-0.1877,-0.1832,-0.1806,-0.1787,-0.1798,-0.1774,-0.179,-0.181,-0.1802,-0.1804,-0.1807,-0.1811,-0.1813,-0.179,-0.179,-0.179,0,-0.2184,-0.2152,-0.2114,-0.2095,-0.2076,-0.2036,-0.2023,-0.1999,-0.1953,-0.194,-0.1929,-0.1873,-0.1844,-0.1818,-0.1821,-0.1806,-0.1801,-0.1796,-0.1807,-0.1809,-0.181,-0.1814,-0.1816,-0.1793,-0.1792,-0.1792,-0.1792,0,-0.2186,-0.2164,-0.2158,-0.2115,-0.2095,-0.2079,-0.2039,-0.2023,-0.2,-0.1972,-0.1947,-0.1911,-0.1876,-0.1868,-0.1845,-0.1839,-0.1834,-0.1816,-0.1797,-0.1817,-0.182,-0.1821,-0.1796,-0.1795,-0.1794,-0.1794,0,0,-0.2233,-0.217,-0.2168,-0.2149,-0.2102,-0.2084,-0.2067,-0.2034,-0.2021,-0.199,-0.1975,-0.1938,-0.1921,-0.19,-0.1873,-0.1865,-0.1877,-0.1848,-0.1846,-0.1855,-0.187,-0.1884,-0.1887,-0.1861,-0.1861,-0.1861,-0.1873,0,-0.2246,-0.2213,-0.2179,-0.2158,-0.2138,-0.21,-0.2084,-0.2054,-0.2028,-0.2007,-0.1977,-0.1953,-0.1932,-0.1919,-0.1909,-0.1878,-0.188,-0.1877,-0.1846,-0.1845,-0.1858,-0.1888,-0.1903,-0.1916,-0.1874,-0.1874,-0.1874,0,-0.2258,-0.223,-0.2207,-0.2164,-0.2154,-0.2141,-0.2108,-0.2088,-0.2053,-0.2034,-0.2011,-0.1983,-0.1962,-0.1945,-0.1917,-0.1915,-0.1901,-0.1883,-0.1883,-0.1879,-0.1862,-0.1886,-0.1919,-0.1922,-0.1876,-0.1876,-0.1875,0,-0.2296,-0.2253,-0.2234,-0.2218,-0.2166,-0.2158,-0.2136,-0.21,-0.2083,-0.2054,-0.2042,-0.2011,-0.1994,-0.1971,-0.1935,-0.1926,-0.191,-0.189,-0.1894,-0.1895,-0.1893,-0.1894,-0.1926,-0.1883,-0.1883,-0.1883,-0.1883,0,-0.2315,-0.2303,-0.225,-0.2239,-0.2224,-0.2184,-0.2171,-0.2145,-0.2114,-0.2097,-0.2062,-0.2046,-0.1999,-0.1978,-0.195,-0.1931,-0.1923,-0.1908,-0.1901,-0.1911,-0.1914,-0.1902,-0.19,-0.1883,-0.1883,-0.1883,-0.1883,0,-0.2356,-0.232,-0.2297,-0.225,-0.2238,-0.2229,-0.2189,-0.2176,-0.2148,-0.2127,-0.2119,-0.2075,-0.2049,-0.2011,-0.1972,-0.1953,-0.1938,-0.1926,-0.1951,-0.1946,-0.1953,-0.1953,-0.1979,-0.198,-0.1936,-0.1937,-0.1937,0,-0.2371,-0.2361,-0.2313,-0.23,-0.2279,-0.2257,-0.2239,-0.22,-0.2183,-0.2142,-0.2135,-0.2106,-0.208,-0.2039,-0.2004,-0.1974,-0.1961,-0.1972,-0.1957,-0.1968,-0.1963,-0.1964,-0.1963,-0.1976,-0.1977,-0.1978,-0.1978,0,-0.2402,-0.2385,-0.2361,-0.2331,-0.2311,-0.2286,-0.2258,-0.2249,-0.2203,-0.2186,-0.2159,-0.2139,-0.21,-0.2072,-0.2038,-0.2014,-0.1989,-0.1983,-0.1983,-0.1994,-0.2009,-0.2002,-0.1962,-0.1983,-0.1983,-0.1982,-0.1982,-0.1982,-0.2431,-0.2421,-0.2386,-0.236,-0.2336,-0.2311,-0.2297,-0.2268,-0.2245,-0.221,-0.2188,-0.2162,-0.2128,-0.2079,-0.2057,-0.2037,-0.2026,-0.2025,-0.2025,-0.2026,-0.203,-0.2012,-0.203,-0.203,-0.203,-0.2029,-0.2029,0,-0.2461,-0.2437,-0.2414,-0.2377,-0.2358,-0.2336,-0.2304,-0.2289,-0.2267,-0.2237,-0.2213,-0.2182,-0.2155,-0.2117,-0.2087,-0.2077,-0.2065,-0.2071,-0.2071,-0.2067,-0.204,-0.2044,-0.2081,-0.2081,-0.2081,-0.2081,-0.2081,-0.2081,-0.2475,-0.2457,-0.2435,-0.2404,-0.238,-0.2355,-0.2339,-0.2316,-0.2292,-0.2259,-0.2236,-0.2212,-0.2179,-0.2146,-0.212,-0.211,-0.21,-0.211,-0.2096,-0.2073,-0.2068,-0.2064,-0.2067,-0.2108,-0.2108,-0.2124,-0.2124,-0.2124]},{"header":{"parameterUnit":"m.s-1","parameterCategory":1,"la1":30.2991,"la2":30.254,"lo1":-89.0895,"lo2":-89.0444,"dy":0.0017,"dx":0.0017,"nx":28,"ny":28,"refTime":"2023-07-19T03:00:00:Z","depth":0,"parameterNumber":3,"parameterNumberName":"V-component_of_WINDS"},"data":[0,0,0,0,0,0,0,0,0,0,0,0,0,0,0,0,0,0,0,0,0,0,0,0,0,0,0,0,0,0,0,0,0,0,0,0,0,0,0,0,0,0,0,0,0,0,0,0,0,0,0,0,0,0,0,0,0,0,4.5406,4.5405,0,4.5365,4.5364,4.5364,4.5334,4.5334,4.5334,4.5334,4.5287,4.5286,4.5285,0,0,0,0,0,0,0,0,0,0,0,0,0,4.5455,4.5455,4.5406,4.5405,4.5405,4.5365,4.5364,4.5364,4.5334,4.5334,4.5334,4.5334,4.5287,4.5286,4.5285,0,0,0,0,0,0,0,0,0,0,0,0,0,4.5426,4.5454,4.5406,4.5386,4.5383,4.5365,4.5364,4.5363,4.5335,4.5334,4.5334,4.5334,4.5288,4.5286,4.5285,4.5282,0,0,4.528,4.5279,0,0,0,0,0,0,0,0,4.5428,4.5424,4.5389,4.5387,4.5384,4.5354,4.5364,4.5336,4.5335,4.5353,4.5334,4.5333,4.5309,4.5306,4.5299,4.528,4.5278,4.528,4.5279,4.5278,4.5278,0,0,0,0,0,0,0,4.543,4.5426,4.5389,4.5389,4.5386,4.5377,4.5373,4.5359,4.5333,4.5351,4.5349,4.5345,4.5308,4.53,4.5298,4.5277,4.528,4.5278,4.5278,4.5277,4.5252,4.5252,0,0,0,0,0,0,4.5435,4.5428,4.5391,4.5388,4.5406,4.5377,4.5371,4.5364,4.5334,4.5329,4.5345,4.5344,4.5303,4.5299,4.5296,4.529,4.5278,4.5277,4.5276,4.5252,4.5252,4.5252,0,0,0,0,0,0,4.5437,4.5432,4.5392,4.5407,4.5402,4.5376,4.5368,4.5364,4.5356,4.5329,4.5324,4.5342,4.5303,4.5298,4.5286,4.5288,4.5276,4.5275,4.5251,4.5252,4.5252,4.5278,0,0,0,0,0,0,4.5438,4.5433,4.5433,4.5408,4.5401,4.5384,4.5368,4.5363,4.5354,4.5352,4.5325,4.532,4.5302,4.5288,4.5284,4.5286,4.5273,4.5251,4.5252,4.5252,4.5277,4.528,4.5282,0,0,0,0,0,4.544,4.5441,4.5433,4.5429,4.54,4.5385,4.5381,4.5361,4.5354,4.5353,4.5336,4.5321,4.5288,4.5287,4.5282,4.5283,4.5251,4.5251,4.5252,4.5276,4.5279,4.5282,0,0,0,0,0,0,4.5466,4.5437,4.5428,4.5421,4.5406,4.538,4.5378,4.5365,4.535,4.5348,4.5324,4.5318,4.5308,4.5294,4.5293,4.5278,4.5268,4.5267,4.5288,4.529,4.5293,4.5296,4.5272,0,0,0,0,0,4.5471,4.5462,4.5437,4.5433,4.5426,4.5403,4.5396,4.5382,4.5365,4.5358,4.5339,4.5321,4.5307,4.5298,4.5283,4.5275,4.5268,4.5273,4.5276,4.5278,4.5277,4.5271,4.5273,4.5254,4.5254,4.5254,0,0,4.5481,4.5464,4.546,4.5438,4.5424,4.5414,4.5398,4.5388,4.538,4.5355,4.5343,4.5329,4.5307,4.5297,4.5291,4.5285,4.5281,4.5278,4.528,4.5279,4.5272,4.5274,4.5276,4.5255,4.5255,4.5255,0,0,4.5493,4.5481,4.5476,4.5463,4.5443,4.5428,4.5427,4.5403,4.5393,4.538,4.5362,4.5351,4.5327,4.5312,4.5301,4.5309,4.5294,4.5305,4.5316,4.5311,4.5312,4.5313,4.5315,4.5316,4.5305,4.5305,4.5305,0,4.5508,4.5494,4.5474,4.5466,4.5457,4.5435,4.543,4.5417,4.5393,4.5387,4.538,4.535,4.5334,4.532,4.5321,4.5314,4.5311,4.5307,4.5314,4.5315,4.5316,4.5317,4.5318,4.5306,4.5306,4.5306,4.5306,0,4.5512,4.5502,4.55,4.5479,4.547,4.5462,4.5441,4.5433,4.542,4.5406,4.5392,4.5372,4.5353,4.5349,4.5336,4.5332,4.5329,4.5319,4.5307,4.5319,4.532,4.5321,4.5308,4.5307,4.5307,4.5307,0,0,4.554,4.5508,4.5508,4.5498,4.5475,4.5466,4.5457,4.544,4.5433,4.5417,4.5409,4.5389,4.5379,4.5367,4.5352,4.5347,4.5354,4.5337,4.5336,4.534,4.5348,4.5356,4.5357,4.5344,4.5344,4.5344,4.5349,0,4.5549,4.5534,4.5516,4.5507,4.5497,4.5477,4.5469,4.5453,4.5439,4.5427,4.541,4.5397,4.5385,4.5378,4.5372,4.5354,4.5355,4.5353,4.5334,4.5334,4.5341,4.5357,4.5366,4.5372,4.535,4.535,4.535,0,4.5557,4.5544,4.5534,4.5511,4.5506,4.55,4.5482,4.5472,4.5453,4.5443,4.543,4.5414,4.5402,4.5393,4.5375,4.5375,4.5366,4.5356,4.5355,4.5353,4.5343,4.5355,4.5373,4.5374,4.535,4.535,4.535,0,4.5578,4.5557,4.5548,4.554,4.5514,4.551,4.5498,4.5479,4.547,4.5454,4.5447,4.5429,4.542,4.5406,4.5385,4.538,4.537,4.5358,4.536,4.536,4.5358,4.5359,4.5375,4.5353,4.5353,4.5353,4.5353,0,4.559,4.5584,4.5557,4.5552,4.5545,4.5524,4.5517,4.5503,4.5487,4.5477,4.5458,4.5449,4.5422,4.541,4.5393,4.5381,4.5377,4.5367,4.5363,4.5369,4.537,4.5362,4.5361,4.5353,4.5353,4.5353,4.5353,0,4.5612,4.5594,4.5583,4.5559,4.5553,4.5548,4.5527,4.552,4.5505,4.5493,4.5489,4.5465,4.5449,4.5427,4.5404,4.5393,4.5383,4.5376,4.539,4.5387,4.539,4.539,4.5402,4.5402,4.538,4.538,4.5381,0,4.562,4.5616,4.5592,4.5585,4.5575,4.5563,4.5554,4.5533,4.5524,4.5502,4.5497,4.548,4.5466,4.5441,4.542,4.5402,4.5395,4.54,4.5392,4.5398,4.5394,4.5395,4.5394,4.5402,4.5403,4.5403,4.5403,0,4.5638,4.5629,4.5617,4.5602,4.5592,4.5579,4.5564,4.5559,4.5535,4.5525,4.551,4.5498,4.5476,4.5459,4.5438,4.5424,4.5409,4.5406,4.5405,4.5411,4.542,4.5415,4.5395,4.5406,4.5406,4.5405,4.5405,4.5405,4.5653,4.5648,4.563,4.5618,4.5605,4.5592,4.5585,4.5569,4.5556,4.5537,4.5525,4.551,4.549,4.5461,4.5448,4.5435,4.5428,4.5428,4.5427,4.5427,4.5429,4.5422,4.5431,4.543,4.543,4.543,4.543,0,4.5669,4.5657,4.5645,4.5627,4.5616,4.5605,4.5588,4.558,4.5568,4.5551,4.5537,4.5519,4.5502,4.5481,4.5462,4.5455,4.5448,4.5451,4.5451,4.5448,4.5436,4.5438,4.5458,4.5458,4.5458,4.5458,4.5458,4.5458,4.5676,4.5667,4.5656,4.564,4.5628,4.5614,4.5606,4.5593,4.558,4.5561,4.5548,4.5534,4.5515,4.5495,4.5478,4.5472,4.5466,4.5471,4.5463,4.5452,4.5449,4.5447,4.5449,4.547,4.547,4.5476,4.5476,4.5476]}]]